CPA66K EDDH-EGKK

Flight info

Callsign CPA66K
Flight time N/A
Altitude 34000
Route WSN5G WSN N125 ONTAZ DCT GALSO Q63 ARREK Y4 TEBRA
Aircraft B77W/H-SDE1E2E3FGHIJ2J3J4J5M1RWXY/LB1D1

Departure

Time 2026-05-01 08:57
Airport Hamburg Helmut Schmidt Airport (EDDH)

Arrival

Time N/A
Airport London Gatwick Airport (EGKK)
Time Latitude Longitude Altitude Speed Heading
2026-05-01 08:22 53.63016 10.00337 55 ft 0 kts 122°
2026-05-01 08:47 53.63017 10.00334 55 ft 0 kts 122°
2026-05-01 08:49 53.63018 10.00332 55 ft 3 kts 122°
2026-05-01 08:49 53.63022 10.00320 55 ft 0 kts 122°
2026-05-01 08:50 53.63028 10.00303 47 ft 2 kts 122°
2026-05-01 08:50 53.63038 10.00278 47 ft 2 kts 122°
2026-05-01 08:50 53.63046 10.00256 47 ft 2 kts 122°
2026-05-01 08:50 53.63050 10.00246 47 ft 0 kts 122°
2026-05-01 08:51 53.63047 10.00262 47 ft 1 kts 100°
2026-05-01 08:51 53.63050 10.00244 47 ft 5 kts 135°
2026-05-01 08:51 53.63092 10.00221 47 ft 3 kts 178°
2026-05-01 08:51 53.63088 10.00222 47 ft 0 kts 178°
2026-05-01 08:52 53.63087 10.00222 47 ft 1 kts 178°
2026-05-01 08:52 53.63066 10.00209 53 ft 7 kts 202°
2026-05-01 08:53 53.62996 10.00146 48 ft 15 kts 211°
2026-05-01 08:53 53.62913 10.00062 51 ft 6 kts 209°
2026-05-01 08:53 53.62880 10.00051 50 ft 5 kts 175°
2026-05-01 08:53 53.62843 10.00074 50 ft 6 kts 154°
2026-05-01 08:54 53.62815 10.00097 49 ft 10 kts 153°
2026-05-01 08:54 53.62722 10.00176 50 ft 19 kts 152°
2026-05-01 08:54 53.62648 10.00241 51 ft 9 kts 152°
2026-05-01 08:54 53.62596 10.00248 50 ft 6 kts 205°
2026-05-01 08:55 53.62584 10.00228 47 ft 0 kts 233°
2026-05-01 08:55 53.62583 10.00225 47 ft 1 kts 233°
2026-05-01 08:55 53.62579 10.00216 49 ft 2 kts 233°
2026-05-01 08:55 53.62552 10.00149 49 ft 14 kts 238°
2026-05-01 08:56 53.62550 10.00024 45 ft 12 kts 314°
2026-05-01 08:56 53.62577 9.99994 46 ft 0 kts 331°
2026-05-01 08:56 53.62581 9.99990 48 ft 6 kts 331°
2026-05-01 08:56 53.62854 9.99755 47 ft 100 kts 333°
2026-05-01 08:57 53.63833 9.98913 151 ft 206 kts 333°
2026-05-01 08:57 53.65204 9.97722 1356 ft 231 kts 331°
2026-05-01 08:57 53.66617 9.96414 2757 ft 241 kts 331°
2026-05-01 08:57 53.68179 9.95052 3392 ft 264 kts 332°
2026-05-01 08:58 53.69758 9.93511 4279 ft 264 kts 321°
2026-05-01 08:58 53.70904 9.91051 4906 ft 273 kts 290°
2026-05-01 08:58 53.71207 9.87899 4980 ft 277 kts 262°
2026-05-01 08:58 53.70647 9.84875 5044 ft 269 kts 238°
2026-05-01 08:59 53.69668 9.82184 5774 ft 272 kts 236°
2026-05-01 08:59 53.68665 9.79438 6813 ft 278 kts 236°
2026-05-01 08:59 53.67646 9.76652 7824 ft 282 kts 236°
2026-05-01 08:59 53.66607 9.73811 8837 ft 288 kts 236°
2026-05-01 09:00 53.65542 9.70904 9842 ft 294 kts 236°
2026-05-01 09:00 53.64457 9.67940 10780 ft 301 kts 236°
2026-05-01 09:00 53.63321 9.64844 11313 ft 323 kts 236°
2026-05-01 09:00 53.62079 9.61468 11561 ft 355 kts 236°
2026-05-01 09:01 53.60837 9.57689 12001 ft 379 kts 244°
2026-05-01 09:01 53.59824 9.53513 12856 ft 390 kts 246°
2026-05-01 09:01 53.58828 9.49228 13859 ft 396 kts 246°
2026-05-01 09:01 53.57820 9.44884 14889 ft 400 kts 246°
2026-05-01 09:02 53.56812 9.40567 15892 ft 403 kts 247°
2026-05-01 09:02 53.55762 9.36108 16895 ft 407 kts 247°
2026-05-01 09:02 53.54708 9.31666 17916 ft 410 kts 247°
2026-05-01 09:02 53.53639 9.27190 18865 ft 415 kts 247°
2026-05-01 09:03 53.52552 9.22661 19651 ft 421 kts 247°
2026-05-01 09:03 53.51447 9.18072 20441 ft 426 kts 247°
2026-05-01 09:03 53.50327 9.13434 21259 ft 431 kts 247°
2026-05-01 09:03 53.49196 9.08759 22096 ft 434 kts 247°
2026-05-01 09:04 53.48048 9.04023 22825 ft 441 kts 247°
2026-05-01 09:04 53.46881 8.99221 23569 ft 446 kts 247°
2026-05-01 09:04 53.45704 8.94386 24361 ft 448 kts 247°
2026-05-01 09:04 53.44520 8.89533 25028 ft 451 kts 248°
2026-05-01 09:05 53.43322 8.84633 25656 ft 456 kts 248°
2026-05-01 09:05 53.42117 8.79712 26348 ft 458 kts 248°
2026-05-01 09:05 53.40897 8.74750 26949 ft 462 kts 248°
2026-05-01 09:05 53.39667 8.69754 27504 ft 467 kts 249°
2026-05-01 09:06 53.38423 8.64710 28077 ft 471 kts 249°
2026-05-01 09:06 53.37163 8.59618 28557 ft 476 kts 249°
2026-05-01 09:06 53.35889 8.54477 29049 ft 480 kts 249°
2026-05-01 09:06 53.34601 8.49292 29615 ft 483 kts 249°
2026-05-01 09:07 53.33308 8.44099 30137 ft 485 kts 249°
2026-05-01 09:07 53.32024 8.38962 30729 ft 484 kts 249°
2026-05-01 09:07 53.30727 8.33780 31342 ft 482 kts 249°
2026-05-01 09:07 53.29433 8.28624 31961 ft 480 kts 249°
2026-05-01 09:08 53.28142 8.23494 32531 ft 478 kts 249°
2026-05-01 09:08 53.26851 8.18372 33072 ft 477 kts 248°
2026-05-01 09:08 53.25565 8.13283 33605 ft 477 kts 249°
2026-05-01 09:08 53.24271 8.08170 34087 ft 476 kts 249°
2026-05-01 09:09 53.22988 8.03113 34422 ft 471 kts 248°
2026-05-01 09:09 53.21708 7.98082 34392 ft 472 kts 249°
2026-05-01 09:09 53.19125 7.87953 34407 ft 476 kts 248°
2026-05-01 09:10 53.16519 7.77789 34400 ft 477 kts 248°
2026-05-01 09:10 53.13905 7.67639 34387 ft 477 kts 248°
2026-05-01 09:11 53.11283 7.57503 34391 ft 476 kts 248°
2026-05-01 09:11 53.08660 7.47407 34388 ft 475 kts 248°
2026-05-01 09:12 53.06028 7.37317 34384 ft 475 kts 248°
2026-05-01 09:12 53.03399 7.27280 34378 ft 474 kts 248°
2026-05-01 09:13 53.00728 7.17257 34381 ft 474 kts 246°
2026-05-01 09:13 52.97845 7.07422 34371 ft 474 kts 244°
2026-05-01 09:14 52.94905 6.97647 34372 ft 473 kts 244°
2026-05-01 09:14 52.92005 6.87942 34365 ft 473 kts 244°
2026-05-01 09:15 52.89102 6.78179 34364 ft 473 kts 244°
2026-05-01 09:15 52.86194 6.68422 34369 ft 473 kts 245°
2026-05-01 09:16 52.83277 6.58674 34364 ft 473 kts 245°
2026-05-01 09:17 52.78889 6.44087 34349 ft 471 kts 244°
2026-05-01 09:17 52.74500 6.29594 34349 ft 469 kts 244°
2026-05-01 09:18 52.70110 6.15182 34348 ft 468 kts 244°
2026-05-01 09:19 52.65707 6.00810 34348 ft 468 kts 243°
2026-05-01 09:20 52.61298 5.86505 34338 ft 466 kts 243°
2026-05-01 09:21 52.55422 5.67575 34339 ft 464 kts 243°
2026-05-01 09:21 52.51000 5.53422 34323 ft 464 kts 243°
2026-05-01 09:22 52.45077 5.34599 34316 ft 463 kts 242°
2026-05-01 09:23 52.40633 5.20563 34314 ft 462 kts 241°
2026-05-01 09:24 52.36683 5.08163 34314 ft 462 kts 242°
2026-05-01 09:25 52.30243 4.88074 34329 ft 461 kts 241°
2026-05-01 09:26 52.26249 4.75696 34322 ft 459 kts 241°
2026-05-01 09:26 52.21772 4.61899 34305 ft 458 kts 240°
2026-05-01 09:27 52.17301 4.48195 34295 ft 459 kts 240°
2026-05-01 09:28 52.14295 4.39024 34293 ft 460 kts 240°
2026-05-01 09:28 52.11275 4.29846 34296 ft 460 kts 241°
2026-05-01 09:29 52.06733 4.16102 34285 ft 460 kts 240°
2026-05-01 09:30 52.02182 4.02410 34284 ft 459 kts 240°
2026-05-01 09:30 51.97619 3.88752 34293 ft 459 kts 240°
2026-05-01 09:31 51.94563 3.79648 34290 ft 460 kts 240°
2026-05-01 09:32 51.89954 3.65983 34285 ft 461 kts 239°
2026-05-01 09:32 51.85319 3.52311 34280 ft 462 kts 240°
2026-05-01 09:33 51.82220 3.43213 34281 ft 461 kts 239°
2026-05-01 09:34 51.77569 3.29614 34284 ft 461 kts 239°
2026-05-01 09:34 51.73507 3.15586 34277 ft 463 kts 251°
2026-05-01 09:35 51.71774 3.00280 34268 ft 463 kts 261°
2026-05-01 09:36 51.70941 2.90000 34271 ft 462 kts 260°
2026-05-01 09:36 51.70057 2.79755 34267 ft 461 kts 259°
2026-05-01 09:37 51.69153 2.69535 34262 ft 460 kts 259°
2026-05-01 09:37 51.67782 2.54229 34263 ft 460 kts 259°
2026-05-01 09:38 51.66373 2.38937 34266 ft 460 kts 258°
2026-05-01 09:39 51.64926 2.23649 34250 ft 460 kts 258°
2026-05-01 09:39 51.63956 2.13463 34250 ft 460 kts 258°
2026-05-01 09:40 51.62557 1.98168 34248 ft 460 kts 259°
2026-05-01 09:41 51.61486 1.88048 34242 ft 456 kts 250°
2026-05-01 09:41 51.58745 1.79089 34249 ft 447 kts 231°
2026-05-01 09:41 51.56767 1.75268 34248 ft 444 kts 225°
2026-05-01 09:42 51.52606 1.67929 34246 ft 445 kts 225°
2026-05-01 09:42 51.48649 1.60273 34226 ft 449 kts 237°
2026-05-01 09:43 51.46476 1.50823 34239 ft 455 kts 248°
2026-05-01 09:43 51.44327 1.41304 34244 ft 450 kts 242°
2026-05-01 09:44 51.40544 1.33719 34223 ft 434 kts 213°
2026-05-01 09:44 51.38083 1.30949 34244 ft 434 kts 213°
2026-05-01 09:45 51.33157 1.25289 34245 ft 437 kts 213°
2026-05-01 09:45 51.25779 1.16624 34237 ft 440 kts 214°
2026-05-01 09:46 51.20875 1.10855 34233 ft 440 kts 213°
2026-05-01 09:46 51.15939 1.05066 34236 ft 440 kts 213°
2026-05-01 09:47 51.11006 0.99299 34236 ft 440 kts 213°